STARLINK-11547, 62587

Orbit data source: Space-Track

STARLINK-11547, 62587 is a payload satellite owned by SpaceX/Seattle (US) in LEO that was launched on Mon, 13 Jan 2025 UTC via an FALCON 9 launch vehicle from the Air Force Eastern Test Range (AFETR). Payload-class satellites include a variety of spacecraft equipped with specific instruments for various scientific and technological missions. These include communications satellites like Starlink; space stations such as the ISS; scientific satellites like the Hubble; Earth observation satellites from companies like Planet Labs, Umbra, and HawkEye 360; GPS; miniature CubeSats for education and research; and military/defense satellites.

Loading next visibility...
Identifier
62587, 2025-008A
Orbit
LEO
Country
Flag of USUS
Related business
Manufacturer
SpaceX/Seattle
Mission
Operational Commercial Communications
Bus & Motor
STARLINK V2MD, Unknown motor
Mass
960 kg wet, ~910 kg dry
Launch date (UTC)
2025-01-13 (1 year ago)
Launch vehicle
FALCON 9
Launch site
Air Force Eastern Test Range (AFETR)
Object type
Payload
Rocket body
Debris
Shape & HBR
Box + 2 Pan, 18.1 m
Radar Cross Section
36.964 m², Large (>1 m²)

Expand to show TLE details & history
Last TLE update: 1 week ago

TLE from 1 week ago
0 STARLINK-11547
1 62587U 25008A   26154.60163698  .00773264  00000-0  55247-2 0  9994
2 62587  42.9987 328.5285 0000657 199.9650 160.1192 15.70673454 79625
Epoch: 2026-06-03T14:26Z
TLE epoch observation values (Epoch: 2026-06-03T14:26:21.435Z)
Latitude
Longitude
-140.11872°
Altitude
357.158 km
Speed
7.697 km/s
True Right ascension
21h 54m 06s
True Declination
0° 00' 00"
Sunlit
Object was in daylight at epoch
Visualization orbit readout
Latitude
Unknown
Longitude
Unknown
Altitude
Unknown
Speed
Unknown
Apparent Right ascension
Unknown
Apparent Declination
Unknown
Sunlit
N/A
Visualization observer readout
Local Sidereal Time
13:09:12
Azimuth
Unknown
Elevation
Unknown
Doppler factor
Unknown
Orbital elements
Apogee altitude
359.395 km
Perigee altitude
358.51 km
Semi-major axis
6,737.09 km
Eccentricity
0.00007
Inclination
42.9987°
RAAN
328.5285°
Arg. of periapsis
199.965°
True anomaly
160.12176°
Mean anomaly
160.1192°
Eccentric anomaly
160.12048°
Mean motion
3.92495 °/min
Orbital period
91.72 mins
BSTAR
0.0055247
Loading maneuver chart data...
Computing Atmospheric mass density...
Loading historical data...
Loading historical data...
Loading historical data...
Loading historical data...
Loading historical data...
Loading historical data...
Loading historical data...

Documentation

Showing up to 5 results
|